TimeCDT,TemperatureF,Dew PointF,Humidity,Sea Level PressureIn,VisibilityMPH,Wind Direction,Wind SpeedMPH,Gust SpeedMPH,PrecipitationIn,Events,Conditions,WindDirDegrees,DateUTC
12:53 AM,60.1,46.0,60,29.95,10.0,SE,19.6,27.6,N/A,,Overcast,140,2013-04-26 05:53:00
1:53 AM,59.0,44.6,59,30.04,10.0,SSE,21.9,-,N/A,,Overcast,160,2013-04-26 06:53:00
2:53 AM,60.1,46.0,60,29.92,10.0,South,19.6,25.3,N/A,,Overcast,180,2013-04-26 07:53:00
3:53 AM,59.0,51.1,75,29.89,10.0,South,24.2,33.4,N/A,,Overcast,180,2013-04-26 08:53:00
4:53 AM,57.9,50.0,75,29.87,10.0,South,21.9,32.2,N/A,,Overcast,180,2013-04-26 09:53:00
5:53 AM,57.9,51.1,78,29.88,10.0,South,17.3,26.5,N/A,,Overcast,190,2013-04-26 10:53:00
6:53 AM,57.0,50.0,77,29.93,10.0,SW,11.5,-,N/A,,Mostly Cloudy,220,2013-04-26 11:53:00
7:23 AM,55.4,48.2,77,30.03,10.0,SW,18.4,-,N/A,,Partly Cloudy,220,2013-04-26 12:23:00
7:53 AM,55.0,48.0,77,29.96,10.0,SW,10.4,-,N/A,,Partly Cloudy,220,2013-04-26 12:53:00
8:53 AM,57.0,46.0,67,29.95,10.0,SW,15.0,-,N/A,,Clear,220,2013-04-26 13:53:00
9:53 AM,60.1,45.0,57,29.95,10.0,SW,16.1,-,N/A,,Clear,230,2013-04-26 14:53:00
10:53 AM,66.9,45.0,45,29.94,10.0,WSW,13.8,-,N/A,,Clear,250,2013-04-26 15:53:00
11:53 AM,77.0,36.0,23,29.91,10.0,West,13.8,24.2,N/A,,Clear,260,2013-04-26 16:53:00
12:53 PM,80.1,26.1,14,29.89,10.0,West,20.7,28.8,N/A,,Partly Cloudy,280,2013-04-26 17:53:00
1:53 PM,82.9,17.1,9,29.88,10.0,West,23.0,29.9,N/A,,Clear,260,2013-04-26 18:53:00
2:53 PM,82.9,23.0,11,29.86,10.0,West,19.6,28.8,N/A,,Clear,280,2013-04-26 19:53:00
3:53 PM,84.0,19.9,9,29.85,10.0,West,15.0,32.2,N/A,,Clear,280,2013-04-26 20:53:00
4:53 PM,86.0,19.9,9,29.82,10.0,WNW,17.3,26.5,N/A,,Partly Cloudy,290,2013-04-26 21:53:00
5:53 PM,86.0,21.0,9,29.83,10.0,West,23.0,28.8,N/A,,Partly Cloudy,280,2013-04-26 22:53:00
6:53 PM,84.0,24.1,11,29.85,10.0,NNW,16.1,21.9,N/A,,Partly Cloudy,340,2013-04-26 23:53:00
7:53 PM,75.9,36.0,23,29.91,7.0,North,20.7,32.2,N/A,,Clear,350,2013-04-27 00:53:00
8:53 PM,71.1,36.0,28,29.96,10.0,North,23.0,32.2,N/A,,Partly Cloudy,360,2013-04-27 01:53:00
9:53 PM,66.0,37.9,36,30.00,10.0,North,19.6,33.4,N/A,,Clear,10,2013-04-27 02:53:00
10:53 PM,62.1,39.0,43,30.01,10.0,North,20.7,27.6,N/A,,Partly Cloudy,360,2013-04-27 03:53:00
11:53 PM,59.0,39.0,48,30.01,10.0,North,16.1,-,N/A,,Partly Cloudy,10,2013-04-27 04:53:00